Regional Weather Roundup
Issued by NWS Cleveland, OH

Home | Current Version | Previous Version | Text Only | Print | Product List | Glossary Off
Versions: 1 2 3 4 5 6 7 8 9 10 11 12 13 14 15 16 17 18 19 20 21 22 23 24 25 26 27 28 29 30 31 32 33 34 35 36 37 38 39 40 41 42 43 44 45 46 47 48 49 50

000
ASUS41 KCLE 301602
RWRCLE
OHIO REGIONAL WEATHER ROUNDUP
NATIONAL WEATHER SERVICE CLEVELAND, OH
1200 PM EDT THU JUL 30 2015

NOTE: "FAIR" INDICATES FEW OR NO CLOUDS BELOW 12,000 FEET WITH NO
SIGNIFICANT WEATHER AND/OR OBSTRUCTIONS TO VISIBILITY.

OHZ001>008-015>018-024>027-034-035-043-044-301700-
   NORTHWEST OHIO

CITY           SKY/WX    TMP DP  RH WIND       PRES   REMARKS
DEFIANCE       SUNNY     82  58  43 NW12      30.03S
FINDLAY        SUNNY     81  62  52 W9        30.02S
TOLEDO EXPRESS SUNNY     79  61  53 W12       30.01R
TOLEDO EXEC    SUNNY     82  58  43 NW12      30.01S
LIMA           SUNNY     80  60  50 NW10      30.05S
$$

OHZ009>014-019>023-028>033-038-089-301700-
   NORTHEAST OHIO

CITY           SKY/WX    TMP DP  RH WIND       PRES   REMARKS
CLE-HOPKINS    MOSUNNY   82  60  47 NW12      30.01S
CLE-LAKEFRONT  SUNNY     79  68  69 W15       29.98R
CUY CO. ARPT   SUNNY     81  63  54 W14       30.00R
LORAIN-ELYRIA  SUNNY     79  60  52 W8        30.01S
ASHTABULA      SUNNY     80  61  52 W10       29.98R
AKRON-CANTON   MOSUNNY   81  60  48 W9        30.01S
WOOSTER        SUNNY     80  61  52 NW7       30.03R
MANSFIELD      SUNNY     79  60  52 VRB7      30.04S
YOUNGSTOWN     PTSUNNY   81  59  47 W12       29.99S
$$

OHZ042-051>053-060>062-070>072-077>081-301700-
  SOUTHWEST OHIO

CITY           SKY/WX    TMP DP  RH WIND       PRES   REMARKS
CINC-COVINGTON SUNNY     78  59  52 N3        30.10R
CINC-LUNKEN    SUNNY     82  59  45 VRB3      30.08R
HAMILTON       SUNNY     82  60  47 N8        30.09R
DAYTON         MOSUNNY   79  63  57 VRB6      30.09R
WRIGHT-PAT AFB NOT AVBL
DAYTON GENERAL SUNNY     79  57  46 NW7       30.08R
WILMINGTON     SUNNY     79  60  52 NW9       30.08R
$$

OHZ036-037-039>041-045>050-054>059-063>069-073>076-082>088-301700-
  CENTRAL AND SOUTHEAST OHIO

CITY           SKY/WX    TMP DP  RH WIND       PRES   REMARKS
COLUMBUS       MOSUNNY   81  59  47 NW9       30.04R
OSU AIRPORT    SUNNY     81  61  50 NW10      30.05R
BOLTON FIELD   SUNNY     81  64  57 NW7       30.06R
RICKENBACK AFB SUNNY     79  61  53 S3        30.04R
NEWARK         SUNNY     82  58  43 W9        30.03S
MARION         SUNNY     79  60  52 NW8       30.05R
LANCASTER      SUNNY     80  63  55 W5        30.05R
ZANESVILLE     SUNNY     81  58  45 NW9       30.03S
NEW PHILLY     SUNNY     81  63  54 NW6       30.02R
$$



USA.gov is the U.S. government's official web portal to all federal, state and local government web resources and services.